Terminal Aerodrome Forecast
Issued by NWS

Home | Current Version | Previous Version | Text Only | Print | Product List | Glossary On
Versions: 1 2 3 4 5 6 7 8 9 10 11 12 13 14 15 16 17 18 19 20 21 22 23 24 25 26 27 28 29 30 31 32 33 34
000
FTPA31 PHFO 202300
TAFOGG
TAF
PHOG 202332Z 2100/2124 06012G20KT P6SM FEW030 SCT045
     FM210500 10008KT P6SM FEW035
     FM212100 07010G15KT P6SM FEW030 SCT050
      AMD LTD TO WX VIS AND WIND 2109/2116=

USA.gov is the U.S. government's official web portal to all federal, state and local government web resources and services.